Miscellaneous Local Product
Issued by NWS North Platte, NE

Home | Current Version | Previous Version | Graphics & Text | Print | Product List | Glossary On
Versions: 1 2 3 4 5 6 7 8 9 10 11 12 13 14 15 16 17 18 19 20 21 22 23 24 25 26 27 28 29 30 31 32 33 34 35 36 37 38 39 40 41 42 43 44 45 46 47 48 49 50
000
AXUS43 KLBF 181310
MISLBF


WESTERN AND NORTH CENTRAL NEBRASKA HOURLY WEATHER ROUNDUP
NATIONAL WEATHER SERVICE NORTH PLATTE NE
700 AM CST THU DEC 18 2014

***STATIONS NOT REPORTING VARIABLES SUCH AS SKY/WEATHER OR
PRESSURE ARE PROVIDED BY THE NEBRASKA DEPARTMENT OF
ROADS...RAWS...AND APRS NETWORKS...AND ARE NOT UNDER
NATIONAL WEATHER SERVICE QUALITY CONTROL***

...OBSERVATIONS IN AND NEAR THE EASTERN PANHANDLE OF NEBRASKA...

CITY           SKY/WX    TMP DP  RH WIND       PRES   REMARKS
PINE RIDGE     PTCLDY     7   2  80 CALM      30.01S
CHADRON        PTCLDY     3  -1  83 SW7       30.03R WCI  -9
ALLIANCE       PTCLDY    -1  -6  79 W7        30.00S WCI -14
SIDNEY         PTCLDY     5   1  83 CALM      30.00R
WHITECLAY        N/A      5   0  79 CALM        N/A
LISCO            N/A     15  10  81 CALM        N/A
BIG SPRINGS      N/A     23  22  96 W5          N/A  WCI  17
$$

...OBSERVATIONS IN NORTH CENTRAL NEBRASKA...

CITY           SKY/WX    TMP DP  RH WIND       PRES   REMARKS
VALENTINE      CLOUDY    25  21  85 CALM      30.06R
THEDFORD       CLOUDY    26  24  93 W9        30.07R WCI  16
AINSWORTH      CLOUDY    24  23  97 SW3       30.08R
O`NEILL        CLOUDY    23  22  96 CALM      30.14S
ORD            CLOUDY    23  20  88 SE6       30.13R WCI  16
BROKEN BOW     CLOUDY    24  23  96 S5        30.10S FOG     WCI  18
BROWNLEE         N/A     23  21  93 CALM        N/A
SPRINGVIEW       N/A     24  21  87 CALM        N/A
BREWSTER         N/A     27  26  96 W9          N/A  WCI  18
ROSE             N/A     28  28 100 MISG        N/A
SARGENT          N/A     23  21  93 CALM        N/A
COMSTOCK         N/A     29  27  94 S3          N/A
CHAMBERS         N/A     23  20  89 CALM        N/A
$$

...OBSERVATIONS IN SOUTHWEST NEBRASKA AND FAR NORTHEAST COLORADO...

CITY           SKY/WX    TMP DP  RH WIND       PRES   REMARKS
WRAY           CLOUDY   N/A N/A N/A CALM      30.05R VSB 1/2
IMPERIAL       CLOUDY    25  23  92 W5        30.06R WCI  19
OGALLALA       CLOUDY    24  24  97 W7        30.06R FOG     WCI  16
NORTH PLATTE   CLOUDY    24  22  91 SW7       30.09R WCI  16
MCCOOK         CLOUDY    23  21  92 CALM      30.11R
LEXINGTON      CLOUDY    25  23  92 S3        30.12R
PAXTON           N/A     26  25  94 CALM        N/A
BRADY            N/A     24  22  92 CALM        N/A
GOTHENBURG       N/A     26  24  90 CALM        N/A
CALLAWAY         N/A     24  23  96 CALM        N/A
$$

...NORTH PLATTE AREA...

CITY           SKY/WX    TMP DP  RH WIND       PRES   REMARKS
AIRPORT        CLOUDY    24  22  91 SW7       30.09R WCI  16
DOWNTOWN         N/A     24  22  91 CALM        N/A
$$

...SOME WEATHER OBSERVATIONS FROM AROUND THE REGION...

CITY           SKY/WX    TMP DP  RH WIND       PRES   REMARKS
DENVER         PTCLDY    29  26  89 CALM      29.99R
LARAMIE        PTCLDY    13   9  84 W8        29.97R WCI   2
CHEYENNE       PTCLDY    21  13  71 W8        29.98R WCI  11
SCOTTSBLUFF    FOG        8   5  87 NW7       30.03R VSB 1/2 WCI  -3
RAPID CITY     CLOUDY    22  20  92 S8        29.99S FOG     WCI  12
PIERRE         CLOUDY    21  19  92 SE7       30.10S WCI  12
WINNER         CLOUDY    25  21  85 SE7       30.10S WCI  17
SIOUX FALLS    CLOUDY    19  15  84 E6        30.22R WCI  11
OMAHA          FLURRIES  27  22  81 SE5       30.25R WCI  22
GRAND ISLAND   CLOUDY    23  21  92 SE3       30.17S
KANSAS CITY    LGT SNOW  28  26  92 E9        30.21S FOG     WCI  19
WICHITA        FOG       32  30  92 NE6       30.15R VSB 3/4 WCI  26
HAYS           CLOUDY    27  18  69 NE6       30.14R WCI  20
LIBERAL        CLOUDY    32  28  86 NE3       30.09R
GOODLAND       MOCLDY     8   5  87 W7        30.06R FOG     WCI  -3
$$



USA.gov is the U.S. government's official web portal to all federal, state and local government web resources and services.